EW6143 Weather Reports


time (UTC)temp
C
wind
direction
speed
KPH
gust
KPH
rain 1hr
cm
rain 24hr
cm
rain mn
cm
humidity
%
barometer
mb
20260509064528 20 313 0.0 4.8 0.00 0.00 0.00 83 1009.8
20260509063027 20 0 0.0 3.2 0.00 0.00 0.00 82 1010.0
20260509061533 21 291 3.2 6.4 0.00 0.00 0.00 81 1009.9
20260509060029 21 0 0.0 0.0 0.00 0.00 0.00 80 1010.6
20260509054531 21 0 0.0 4.8 0.00 0.00 0.00 80 1011.1
20260509053037 21 79 0.0 4.8 0.00 0.00 0.00 80 1010.9
20260509051529 21 127 1.6 8.0 0.00 0.00 0.00 79 1011.4
20260509050032 21 0 1.6 6.4 0.00 0.00 0.00 79 1010.2
20260509044529 21 0 0.0 11.3 0.00 0.00 0.00 78 1010.0
20260509043029 21 327 3.2 14.5 0.00 0.00 0.00 77 1009.5
20260509041539 22 275 6.4 12.9 0.00 0.00 0.00 76 1009.6
20260509040029 22 0 0.0 1.6 0.00 0.00 0.00 75 1010.9
20260509034529 22 0 0.0 4.8 0.00 0.00 0.00 76 1010.9
20260509033030 22 0 0.0 1.6 0.00 0.00 0.00 76 1010.6
20260509031532 22 0 0.0 4.8 0.00 0.00 0.00 76 1010.1
20260509030031 21 287 1.6 4.8 0.00 0.00 0.00 76 1010.2
20260509024530 21 315 0.0 6.4 0.00 0.00 0.00 76 1009.7
20260509023029 22 294 3.2 8.0 0.00 0.00 0.00 75 1009.2
20260509021529 22 286 3.2 6.4 0.00 0.00 0.00 75 1009.2
20260509020032 22 347 4.8 9.7 0.00 0.00 0.00 75 1009.1
20260509014527 22 311 1.6 3.2 0.00 0.00 0.00 74 1009.0
20260509013036 22 311 1.6 4.8 0.00 0.00 0.00 74 1008.8
20260509011530 22 0 1.6 4.8 0.00 0.00 0.00 73 1008.7
20260509010040 22 300 3.2 11.3 0.00 0.00 0.00 73 1008.5
20260509004530 22 333 4.8 12.9 0.00 0.00 0.00 72 1008.3
20260509003030 22 331 3.2 11.3 0.00 0.00 0.00 71 1008.3
20260509001529 22 338 4.8 12.9 0.00 0.00 0.00 71 1008.2
20260509000027 23 335 3.2 11.3 0.00 0.00 0.00 69 1008.5
20260508234528 22 329 4.8 11.3 0.00 0.00 0.00 68 1008.6
20260508233030 23 293 4.8 12.9 0.00 0.00 0.00 68 1008.7
20260508231530 23 268 3.2 14.5 0.00 0.00 0.00 68 1008.9
20260508230037 23 312 6.4 12.9 0.00 0.00 0.00 67 1008.9
20260508224537 24 297 6.4 16.1 0.00 0.00 0.00 66 1008.8
20260508223036 24 252 6.4 17.7 0.00 0.00 0.00 67 1008.8
20260508221542 24 338 6.4 19.3 0.00 0.00 0.00 66 1008.6
20260508220030 25 333 8.0 16.1 0.00 0.00 0.00 66 1008.6
20260508214530 25 360 6.4 16.1 0.00 0.00 0.00 64 1008.7
20260508213027 24 267 6.4 14.5 0.00 0.00 0.00 65 1008.6
20260508211530 23 263 4.8 12.9 0.00 0.00 0.00 68 1009.3
20260508210030 22 329 4.8 12.9 0.00 0.00 0.00 68 1010.0
20260508204533 23 323 3.2 14.5 0.00 0.00 0.00 67 1010.3
20260508203028 23 348 4.8 14.5 0.00 0.00 0.00 65 1010.6
20260508201531 23 351 8.0 16.1 0.00 0.00 0.00 63 1010.3
20260508200028 25 337 6.4 17.7 0.00 0.00 0.00 61 1010.5
20260508194528 24 325 8.0 16.1 0.00 0.00 0.00 62 1010.7
20260508193029 25 308 8.0 17.7 0.00 0.00 0.00 62 1010.8
20260508191530 24 284 8.0 17.7 0.00 0.00 0.00 62 1010.9
20260508190040 25 283 6.4 16.1 0.00 0.00 0.00 62 1011.0
20260508184534 25 334 8.0 17.7 0.00 0.00 0.00 61 1011.2
20260508183030 24 284 6.4 17.7 0.00 0.00 0.00 62 1011.4
20260508181529 23 338 4.8 14.5 0.00 0.00 0.00 60 1011.6
20260508180027 24 360 8.0 17.7 0.00 0.00 0.00 58 1012.0
20260508174536 23 349 6.4 16.1 0.00 0.00 0.00 61 1012.2
20260508173030 23 325 6.4 20.9 0.00 0.00 0.00 60 1012.4
20260508171528 23 332 6.4 17.7 0.00 0.00 0.00 61 1012.8
20260508170030 21 340 4.8 14.5 0.00 0.00 0.00 65 1013.3
20260508164534 21 315 4.8 16.1 0.00 0.00 0.00 65 1013.7
20260508163027 21 325 9.7 20.9 0.00 0.00 0.00 65 1013.8
20260508161528 21 324 8.0 16.1 0.00 0.00 0.00 65 1014.1
20260508160032 20 267 6.4 17.7 0.00 0.00 0.00 66 1014.2
20260508154532 20 266 6.4 14.5 0.00 0.00 0.00 68 1014.3
20260508153030 20 335 6.4 12.9 0.00 0.00 0.00 67 1014.5
20260508151531 20 333 3.2 12.9 0.00 0.00 0.00 66 1014.7
20260508150036 20 290 6.4 17.7 0.00 0.00 0.00 64 1014.4
20260508144527 20 295 4.8 14.5 0.00 0.00 0.00 67 1014.4
20260508143029 20 294 4.8 14.5 0.00 0.00 0.00 67 1014.6
20260508141528 19 286 8.0 17.7 0.00 0.00 0.00 67 1014.8
20260508140027 18 277 4.8 12.9 0.00 0.00 0.00 72 1014.7
20260508134529 18 255 6.4 11.3 0.00 0.00 0.00 74 1014.7
20260508133031 17 273 3.2 11.3 0.00 0.00 0.00 79 1014.7
20260508131528 16 324 0.0 4.8 0.00 0.00 0.00 82 1014.8
20260508130035 16 257 0.0 4.8 0.00 0.00 0.00 83 1014.9
20260508124530 16 0 0.0 3.2 0.00 0.00 0.00 83 1015.1
20260508123029 16 0 0.0 0.0 0.00 0.00 0.00 83 1014.9
20260508121529 16 0 0.0 0.0 0.00 0.00 0.00 83 1015.0
20260508120028 16 0 0.0 1.6 0.00 0.00 0.00 83 1015.0
20260508114527 16 0 0.0 9.7 0.00 0.00 0.00 83 1014.9
20260508113030 16 279 3.2 9.7 0.00 0.00 0.00 83 1014.7
20260508111527 16 0 0.0 3.2 0.00 0.00 0.00 83 1015.2
20260508110030 16 0 0.0 9.7 0.00 0.00 0.00 83 1015.3
20260508104550 16 88 1.6 6.4 0.00 0.00 0.00 83 1015.2
20260508103037 16 0 0.0 0.0 0.00 0.00 0.00 83 1014.1
20260508101527 16 336 0.0 1.6 0.00 0.00 0.00 82 1014.0
20260508100027 16 0 0.0 4.8 0.00 0.00 0.00 82 1014.0
20260508094526 16 0 0.0 0.0 0.00 0.00 0.00 82 1014.1
20260508093030 16 0 0.0 4.8 0.00 0.00 0.00 81 1014.1
20260508091527 16 0 0.0 6.4 0.00 0.00 0.00 81 1014.3
20260508090031 16 0 0.0 11.3 0.00 0.00 0.00 81 1014.4
20260508084527 16 281 4.8 12.9 0.00 0.00 0.00 82 1014.1
20260508083027 16 293 0.0 4.8 0.00 0.00 0.00 82 1014.9
20260508081528 16 0 0.0 3.2 0.00 0.00 0.00 82 1015.2
20260508080029 16 0 0.0 0.0 0.00 0.00 0.00 82 1016.0
20260508074529 16 0 0.0 0.0 0.00 0.00 0.00 81 1015.5
20260508073028 16 0 0.0 0.0 0.00 0.00 0.00 81 1015.1
20260508071529 15 0 0.0 0.0 0.00 0.00 0.00 81 1015.1
20260508070128 16 0 0.0 0.0 0.00 0.00 0.00 80 1015.3